Location: Huntsville
(41.2590°N, 111.7678°W)
Time: 14:12:28
(UTC+00:00)

Transit 2A Rocket - All Passes

Search period start: 22 June 2021 00:00
Search period end: 02 July 2021 00:00
Orbit: 592 x 911 km, 66.7° (Epoch: 21 June)

Date Brightness Start Highest point End Pass type
(mag) Time Alt. Az. Time Alt. Az. Time Alt. Az.
22 Jun - 06:48:26 10° S 06:52:34 50° ESE 06:56:49 10° NE visible
22 Jun - 08:32:23 10° W 08:35:25 18° NW 08:38:33 10° N visible
22 Jun - 15:30:29 10° NNW 15:35:22 44° NE 15:40:41 10° SE daylight
22 Jun - 17:13:25 10° NW 17:17:47 27° WSW 17:22:26 10° SSW daylight
23 Jun - 06:06:35 10° SSE 06:10:08 26° ESE 06:13:46 10° NE visible
23 Jun - 07:48:43 10° WSW 07:52:31 30° NW 07:56:28 10° NNE visible
23 Jun - 14:48:13 10° N 14:52:34 28° NE 14:57:15 10° ESE daylight
23 Jun - 16:30:19 10° NW 16:35:17 46° WSW 16:40:41 10° S daylight
24 Jun - 05:25:41 10° SE 05:27:48 14° ESE 05:29:56 10° ENE visible
24 Jun - 07:05:34 10° SW 07:09:46 55° WNW 07:14:08 10° NNE visible
24 Jun - 14:06:11 10° N 14:09:39 18° NE 14:13:18 10° E daylight
24 Jun - 15:47:32 10° NNW 15:52:44 80° WSW 15:58:23 10° SSE daylight
24 Jun - 17:33:56 10° W 17:34:37 10° WSW 17:35:19 10° WSW daylight
25 Jun - 06:22:51 10° SSW 06:27:08 78° ESE 06:31:33 10° NNE visible
25 Jun - 08:08:04 10° WNW 08:10:18 14° NW 08:12:35 10° N visible
25 Jun - 13:24:47 10° NNE 13:26:36 12° NE 13:28:27 10° ENE daylight
25 Jun - 15:04:58 10° NNW 15:10:05 62° ENE 15:15:40 10° SE daylight
25 Jun - 16:48:36 10° WNW 16:52:18 19° WSW 16:56:10 10° SSW daylight
26 Jun - 05:40:38 10° S 05:44:37 39° ESE 05:48:44 10° NE visible
26 Jun - 07:23:55 10° W 07:27:18 22° NW 07:30:49 10° N visible
26 Jun - 14:22:34 10° NNW 14:27:21 37° NE 14:32:31 10° ESE daylight
26 Jun - 16:05:11 10° NW 16:09:52 33° WSW 16:14:53 10° S daylight
27 Jun - 04:59:02 10° SSE 05:02:13 21° ESE 05:05:29 10° ENE visible
27 Jun - 06:40:28 10° WSW 06:44:27 37° NW 06:48:37 10° NNE visible
27 Jun - 13:40:22 10° N 13:44:31 24° NE 13:48:55 10° ESE daylight
27 Jun - 15:22:14 10° NW 15:27:21 56° WSW 15:32:55 10° SSE daylight
28 Jun - 04:19:08 10° ESE 04:19:56 10° ESE 04:20:44 10° E visible
28 Jun - 05:57:28 10° SW 06:01:44 69° WNW 06:06:11 10° NNE visible
28 Jun - 07:44:46 10° NW 07:45:14 10° NW 07:45:42 10° NNW visible
28 Jun - 12:58:28 10° N 13:01:32 16° NE 13:04:44 10° E daylight
28 Jun - 14:39:31 10° NNW 14:44:46 86° ENE 14:50:28 10° SSE daylight
28 Jun - 16:24:18 10° WNW 16:26:46 13° WSW 16:29:18 10° SW daylight
29 Jun - 05:14:56 10° SSW 05:19:09 61° ESE 05:23:32 10° NE visible
29 Jun - 06:59:23 10° W 07:02:09 16° NW 07:05:00 10° N visible
29 Jun - 12:17:59 10° NNE 12:18:26 10° NE 12:18:52 10° NE daylight
29 Jun - 13:57:01 10° NNW 14:02:05 52° ENE 14:07:36 10° SE daylight
29 Jun - 15:40:14 10° WNW 15:44:25 23° WSW 15:48:49 10° SSW daylight
30 Jun - 04:32:54 10° S 04:36:41 31° ESE 04:40:35 10° NE visible
30 Jun - 06:15:33 10° WSW 06:19:12 26° NW 06:23:01 10° N visible
30 Jun - 13:14:41 10° NNW 13:19:19 32° NE 13:24:18 10° ESE daylight
30 Jun - 14:57:01 10° NW 15:01:57 40° WSW 15:07:15 10° S daylight
01 Jul - 03:51:38 10° SE 03:54:20 16° ESE 03:57:05 10° ENE visible
01 Jul - 05:32:16 10° SW 05:36:24 46° NW 05:40:44 10° NNE visible
01 Jul - 12:32:33 10° N 12:36:26 21° NE 12:40:31 10° E daylight
01 Jul - 14:14:10 10° NW 14:19:25 69° WSW 14:25:06 10° SSE daylight
